RH
66 63 63 64 64 65 65 64 63 60 56 51 48 47 47 46 45 43 42 44 43 39 33 30 28 28 29 28 26 25 24 25 29 34 36 31 25 22 22 24 25 27 27 26 24 21 19 18 18 18 17 17 17 16 16 16 16 16 17 18 20 22 22 21 20 20 20 21 22 23 25 25 25 26 26 27 27 27 27 36 54 67 68 61 60 58 50 54
68 65 64 63 62 62 62 62 61 61 61 59 55 51 49 49 50 49 46 44 45 45 41 35 31 29 29 30 29 27 25 25 27 34 38 32 26 25 24 25 27 28 27 27 27 25 23 20 19 19 18 19 19 18 17 17 16 17 17 18 20 21 20 20 19 19 19 20 21 23 24 25 25 25 26 26 27 27 28 32 44 62 70 68 65 56 49 53
69 69 68 67 67 66 65 63 60 59 60 61 62 59 55 52 51 52 52 50 47 47 47 44 38 33 31 30 31 30 28 25 27 33 35 31 28 28 28 27 29 29 27 26 27 26 26 25 22 20 19 19 19 19 18 18 18 18 18 20 21 20 18 19 19 19 19 19 21 22 23 24 24 25 25 25 26 27 29 31 39 54 66 71 70 65 62 62
57 57 58 60 63 67 69 69 66 63 60 60 62 64 63 60 56 54 54 55 54 50 48 50 46 40 35 32 32 32 32 29 29 33 30 27 27 30 32 30 30 30 27 26 26 27 26 27 26 23 21 19 19 19 19 20 19 19 20 21 21 18 17 17 18 18 18 20 21 22 23 23 24 24 25 25 26 28 29 29 33 44 60 74 80 79 74 69
50 50 49 49 50 52 58 66 71 71 66 63 61 63 65 66 65 61 58 57 58 57 52 50 52 49 42 36 34 33 33 33 34 35 30 25 25 30 34 33 31 29 27 27 27 28 27 27 27 26 24 21 19 19 19 20 20 21 21 21 20 18 18 17 17 17 18 19 21 22 23 23 23 24 25 25 26 26 26 27 32 44 61 76 82 83 81 77
58 58 57 56 55 51 48 50 60 70 72 69 65 64 64 66 68 68 66 63 61 62 60 54 52 54 52 43 38 35 35 36 39 39 33 27 23 29 36 35 33 30 27 27 28 28 29 28 28 27 26 24 21 19 18 19 20 21 21 20 20 20 19 17 17 17 18 20 21 23 23 23 23 24 25 25 25 24 25 27 32 43 58 70 78 82 83 81
63 63 63 63 63 61 57 50 47 54 66 71 70 67 66 67 67 69 71 70 67 65 65 63 55 53 57 54 45 39 37 38 41 42 37 30 25 28 35 35 33 32 30 29 29 29 29 29 28 27 26 25 24 21 19 18 20 21 22 21 21 21 19 18 18 17 17 20 22 23 23 23 24 24 25 24 24 24 26 28 31 39 51 65 76 79 78 77
66 68 70 70 69 66 64 62 54 47 51 62 70 71 69 70 69 69 70 72 74 71 69 69 64 56 54 58 57 48 44 42 40 40 38 32 29 31 35 36 34 33 33 32 31 30 29 29 29 28 26 26 25 24 21 19 19 21 22 21 21 20 20 19 19 18 18 20 22 24 24 24 24 25 25 24 24 24 26 29 32 38 49 64 74 74 73 75
66 70 75 79 79 76 71 69 66 58 48 49 60 69 71 71 72 72 71 72 75 75 73 72 71 65 55 56 64 62 55 46 38 38 40 36 34 37 39 39 37 35 34 34 33 31 31 31 30 28 27 27 26 25 24 22 20 21 21 21 21 21 21 21 20 20 21 22 23 24 24 24 25 25 25 24 24 24 27 30 35 42 52 59 64 66 69 74
62 65 71 79 83 85 84 80 76 70 60 50 49 60 69 71 72 74 74 74 75 77 77 74 75 73 62 54 61 76 73 51 39 39 40 39 37 37 41 41 39 37 35 35 34 33 32 31 29 26 26 26 27 26 26 25 22 21 21 20 21 21 21 21 21 22 22 23 24 24 25 24 25 26 26 24 24 25 28 33 38 45 49 51 56 63 68 72
61 63 67 74 80 86 91 93 89 81 72 61 50 51 62 70 70 71 76 78 77 77 78 77 76 77 73 59 56 81 87 60 44 41 39 40 39 38 40 43 42 38 37 36 35 34 31 30 29 27 27 27 29 28 27 28 26 22 21 20 21 21 21 21 21 22 22 22 23 24 24 24 25 26 25 24 25 26 29 35 41 44 45 46 53 58 62 68
64 66 69 73 79 86 94 100 101 94 85 74 61 50 51 64 70 69 72 78 80 79 79 79 77 78 79 71 63 72 77 65 54 47 43 41 41 43 41 43 45 41 39 37 36 34 31 30 29 28 27 28 29 28 28 29 28 25 22 21 20 20 21 21 22 22 22 22 22 23 24 25 25 26 25 26 27 28 33 39 44 45 45 47 51 52 55 63
67 69 72 76 81 89 97 102 103 102 95 83 72 58 48 52 62 68 68 72 79 81 80 80 80 79 79 84 79 63 59 68 69 58 51 47 42 44 45 44 46 44 41 39 37 35 32 31 29 29 28 28 28 29 31 31 30 29 25 22 20 19 20 21 22 22 22 22 22 23 24 24 25 26 26 27 30 33 37 41 42 43 44 46 44 44 50 55
72 73 75 78 84 91 95 98 100 102 100 88 77 65 53 46 49 59 64 66 72 79 82 80 83 80 79 94 90 65 54 65 80 75 61 53 47 43 45 47 47 46 43 41 40 36 34 32 30 29 28 28 28 30 33 33 32 30 28 24 21 19 20 21 21 21 21 21 22 23 24 24 25 25 25 28 33 37 39 37 34 34 35 38 37 37 42 49
78 80 81 82 84 87 88 90 92 94 93 86 76 67 57 49 44 47 54 62 66 73 81 81 85 82 84 101 92 70 64 62 75 83 71 60 53 46 43 45 47 46 44 41 40 38 35 34 31 30 30 29 28 29 33 35 33 32 30 28 24 22 20 21 21 21 21 21 22 23 23 25 24 25 26 26 28 28 29 28 27 29 30 30 33 35 36 43
88 88 89 89 87 84 81 79 78 77 75 70 66 63 57 49 45 42 43 55 60 66 76 81 85 85 91 105 92 77 77 67 63 76 81 72 59 53 46 42 45 46 45 42 40 40 38 37 34 31 30 29 28 28 31 34 35 34 32 30 27 25 22 21 21 20 21 21 22 23 24 25 24 26 25 22 31 36 32 31 29 28 31 29 27 31 36 42
98 96 93 90 85 79 71 65 60 57 54 51 50 52 52 46 43 43 39 45 55 59 68 78 84 87 97 106 96 85 86 77 63 66 87 89 68 59 53 46 44 44 45 44 41 40 40 39 36 33 31 30 30 29 29 33 38 39 36 33 32 29 25 23 22 21 22 22 23 24 24 25 25 27 23 22 48 76 77 69 58 39 27 25 26 28 32 37
98 92 85 77 69 63 55 47 42 40 38 37 38 39 44 42 39 42 40 40 48 53 60 73 83 87 98 106 98 91 89 86 74 62 80 99 84 67 60 54 48 43 43 44 43 41 40 40 38 35 33 31 31 31 31 33 39 44 42 38 36 34 30 27 24 22 22 22 22 24 24 25 25 26 25 19 33 74 102 101 89 69 42 26 25 27 29 32
77 70 62 54 47 40 36 32 29 28 28 28 31 32 36 38 36 38 41 39 43 52 56 66 81 88 96 104 98 94 92 89 83 68 67 89 95 78 64 59 53 46 42 41 44 43 41 41 39 38 36 35 36 36 38 38 36 40 43 42 39 36 33 29 26 23 22 21 21 23 23 24 25 24 26 22 15 39 85 106 102 94 75 49 33 28 30 29
48 43 37 32 28 25 23 22 21 21 23 23 25 28 30 33 35 35 39 40 42 50 54 58 76 89 94 100 100 101 100 91 87 80 67 72 92 92 73 62 57 50 43 41 42 44 43 42 41 44 46 45 46 45 45 41 35 34 38 41 41 38 35 32 29 25 22 22 21 22 23 22 24 24 23 24 18 17 44 80 100 105 99 86 65 45 36 33
26 23 21 19 18 18 18 18 20 19 20 22 23 25 28 30 32 34 38 42 43 47 51 53 65 84 94 98 102 105 104 99 94 91 78 67 81 98 88 69 61 55 48 43 41 42 43 43 43 48 52 51 48 47 45 41 36 34 33 37 42 41 38 35 33 30 25 23 22 22 22 21 22 25 23 22 23 18 17 36 64 83 98 108 94 72 63 66
17 16 16 17 16 17 17 17 18 18 17 18 20 22 26 28 30 34 38 42 44 44 48 50 57 80 94 95 99 102 102 102 99 96 90 74 73 95 101 83 69 62 56 49 44 42 41 43 46 47 51 51 47 45 44 41 38 35 32 33 38 42 40 38 37 34 30 26 25 23 21 22 21 22 24 22 20 21 18 18 26 37 62 91 91 84 93 96
16 17 16 16 15 13 13 12 11 12 12 11 13 16 19 23 26 33 37 40 42 43 46 49 56 76 90 91 95 99 102 104 100 97 95 83 73 87 106 98 80 68 62 57 51 46 42 44 48 48 48 49 49 49 47 44 41 38 35 33 35 39 40 42 41 38 35 30 27 25 21 21 21 20 21 22 21 21 21 21 21 18 30 57 62 69 94 99
14 13 12 10 9 8 7 7 7 7 8 7 8 10 11 14 18 26 34 39 42 42 46 49 55 73 86 89 90 94 100 102 99 98 96 89 77 79 99 106 92 74 65 64 60 54 49 44 45 49 50 49 49 51 50 48 47 43 39 36 36 36 37 42 45 43 39 35 31 28 25 21 20 20 19 20 23 23 22 21 23 21 21 34 37 42 76 96
9 8 7 6 5 5 4 5 5 5 6 6 6 7 8 10 12 16 25 38 44 43 45 47 56 73 79 79 85 93 99 100 101 102 100 97 85 76 90 105 100 84 69 67 64 59 56 50 44 45 47 47 46 49 52 52 51 48 43 40 38 36 35 38 44 46 43 39 35 30 27 24 20 20 20 21 21 22 24 22 22 24 21 26 28 24 52 91
6 5 5 5 5 5 5 6 6 7 6 5 5 5 7 8 9 10 16 30 44 47 46 47 56 67 66 71 88 99 102 104 106 105 104 106 95 80 85 99 104 94 77 70 68 62 59 55 49 44 44 44 43 43 48 52 52 51 48 44 41 39 35 35 38 44 45 41 38 33 29 26 23 22 20 21 22 22 24 25 25 25 23 23 28 21 27 66
5 5 6 7 7 7 8 8 8 8 8 7 6 5 5 6 6 9 12 20 36 47 48 50 55 59 61 72 87 96 100 103 103 102 104 108 104 90 85 95 104 100 85 71 66 64 61 58 52 46 43 42 43 42 42 48 52 54 54 48 43 41 39 37 35 38 43 43 39 35 31 28 26 25 24 22 23 24 25 28 30 29 27 22 24 27 22 38
7 8 8 8 8 9 8 8 8 9 9 8 8 6 5 4 5 8 11 14 24 36 44 51 54 55 62 70 78 89 97 100 101 103 105 105 106 98 89 97 106 104 95 79 69 68 68 66 61 54 48 41 42 45 44 46 51 56 57 52 46 43 41 39 36 34 35 39 39 36 33 31 30 28 27 26 24 26 26 29 32 32 35 30 22 27 28 29
9 8 8 8 8 9 8 8 8 9 9 9 8 8 6 5 5 7 10 12 16 22 31 45 53 56 63 68 75 87 92 95 100 103 103 102 104 99 92 100 107 104 100 87 76 75 76 77 72 63 56 47 42 45 46 47 51 56 57 53 48 43 40 38 37 35 32 33 36 37 34 33 33 31 29 28 26 28 28 28 30 32 36 38 31 26 28 28
9 8 8 8 8 8 7 7 8 8 9 9 9 9 8 8 7 7 9 11 13 15 19 34 51 58 62 66 74 84 88 93 100 101 98 96 99 100 95 100 105 103 103 93 80 75 73 76 75 66 59 51 43 41 43 46 49 53 54 52 47 41 38 37 36 35 33 31 33 35 35 33 33 34 32 31 30 30 29 28 28 28 30 37 40 32 28 31
8 8 8 7 6 5 5 5 5 6 7 9 9 9 9 10 10 8 9 10 11 14 15 24 43 56 62 66 73 80 84 92 101 104 101 94 92 93 91 95 100 96 96 93 86 79 70 67 69 66 61 55 46 39 39 41 45 48 50 49 46 39 35 34 34 33 32 32 31 30 31 33 35 37 36 35 33 31 28 28 28 28 29 32 36 35 30 30
8 7 5 4 3 3 3 3 3 4 5 7 8 9 11 14 15 13 10 9 10 13 14 19 34 50 60 67 72 76 81 91 102 106 106 102 98 93 88 93 101 97 92 89 86 83 76 69 70 68 61 56 50 43 38 38 41 44 45 45 43 38 33 31 31 31 32 32 31 28 28 32 39 42 41 38 35 32 30 28 27 27 28 29 29 31 32 28
6 5 3 2 2 2 2 2 2 3 3 5 7 10 14 17 18 16 13 11 10 12 14 17 27 41 52 62 69 72 75 86 99 106 107 105 104 103 98 98 104 103 102 100 95 90 81 72 72 73 66 59 53 47 42 41 43 44 45 44 41 36 33 32 32 32 33 34 33 31 28 31 41 45 43 42 38 34 32 29 28 26 26 29 29 27 29 27
3 3 2 2 2 2 2 2 2 2 2 3 5 8 14 16 17 18 16 12 9 11 14 16 22 31 42 55 64 70 75 82 89 96 104 105 103 104 102 100 103 103 103 104 102 102 96 82 77 79 75 67 60 52 48 48 47 45 46 46 43 39 36 35 37 37 39 40 38 34 29 30 42 49 47 46 42 37 35 32 29 28 26 27 28 26 27 27
2 3 3 3 2 2 2 2 2 2 2 3 3 6 11 14 17 18 17 14 11 12 14 16 20 24 32 45 55 64 75 83 84 85 91 100 104 106 105 103 103 103 103 101 98 99 100 94 94 98 91 79 68 59 53 51 47 42 41 43 44 42 39 37 38 38 40 42 38 35 31 31 43 55 53 48 46 41 37 35 31 29 28 26 26 25 25 26
3 3 3 3 3 3 3 2 3 2 2 2 3 5 8 12 16 16 14 14 13 13 14 16 19 21 27 38 49 57 66 75 83 89 93 98 102 106 110 108 105 105 106 105 103 100 96 91 94 103 100 88 77 68 61 57 52 46 40 40 42 43 42 40 38 37 38 38 37 35 33 31 44 59 57 50 48 44 39 36 33 30 28 26 26 23 25 34
3 3 3 3 3 3 3 3 3 3 3 3 3 4 6 10 14 14 14 15 14 13 15 18 19 21 24 33 43 53 62 68 76 91 101 104 102 101 104 106 106 107 107 107 107 107 104 97 95 101 101 92 82 73 67 61 56 51 44 41 42 43 43 41 38 36 36 37 35 35 33 34 47 61 59 52 51 47 43 39 35 33 29 27 27 23 37 69
3 3 3 4 4 4 4 4 3 3 3 3 3 4 5 7 10 13 15 16 14 13 17 19 20 22 24 30 39 50 67 79 84 94 104 105 106 104 102 103 103 104 106 106 106 107 108 107 105 106 103 94 85 77 68 59 55 53 48 44 43 42 41 41 40 37 37 38 35 36 38 38 47 59 60 58 56 51 47 42 38 35 32 31 31 26 34 65
3 3 3 3 4 4 4 4 4 4 3 3 4 3 4 6 8 11 14 15 14 15 18 20 21 23 25 29 37 48 70 91 97 101 105 104 106 107 105 104 104 103 104 105 106 105 105 105 106 108 103 91 80 71 61 56 59 60 54 49 43 38 38 43 46 44 43 42 40 40 43 44 50 61 65 63 59 54 49 45 41 38 36 34 32 29 27 34
3 3 3 3 4 4 3 4 4 4 4 3 4 4 5 7 8 11 13 14 15 17 20 21 21 23 27 33 41 52 74 97 103 103 104 104 106 108 106 105 105 105 104 104 104 103 100 98 100 104 98 83 71 67 68 69 74 72 65 63 53 40 38 40 43 47 47 47 45 44 48 52 55 63 68 66 60 55 50 46 43 40 38 34 30 29 28 25
3 3 4 3 4 4 4 4 4 4 4 4 4 5 6 8 10 12 14 15 18 20 20 21 21 24 30 40 54 66 82 100 105 102 102 104 107 108 106 105 106 106 105 103 102 102 102 96 94 94 90 85 82 84 87 88 88 83 77 78 68 53 51 49 43 44 47 48 46 45 51 56 55 58 65 67 62 56 51 48 46 44 40 36 33 31 29 27
3 3 3 3 4 4 4 4 4 4 5 5 6 7 8 10 12 14 16 19 21 21 21 21 22 27 35 49 69 86 95 102 103 101 101 103 106 108 105 103 106 106 106 106 102 103 107 103 96 92 91 98 103 99 93 88 85 81 75 72 63 52 54 58 57 56 57 57 54 51 55 57 53 54 62 67 64 57 53 50 48 47 43 39 37 35 32 32
3 3 3 4 4 4 4 4 5 5 5 6 7 8 10 12 15 17 20 22 22 22 22 23 25 33 45 62 82 99 103 103 103 102 102 102 103 106 105 103 104 104 104 106 104 104 109 107 102 99 98 100 100 96 91 86 78 70 65 61 55 49 47 50 58 63 66 69 71 67 64 63 63 64 66 70 67 59 55 52 50 48 45 43 42 41 40 38
3 3 3 4 4 4 4 5 5 5 6 7 9 11 14 16 20 23 25 25 24 23 25 29 35 47 65 82 95 102 103 101 102 101 101 103 103 103 104 103 102 103 103 103 102 103 106 106 104 104 103 97 89 81 75 71 66 64 64 61 58 56 50 45 46 52 60 70 75 74 70 72 79 80 78 76 70 63 58 54 52 49 46 46 44 42 42 41
3 3 4 4 4 4 4 5 6 7 8 10 13 16 20 24 27 28 28 27 26 28 33 41 52 67 85 98 103 102 101 100 100 101 101 102 103 102 102 102 102 103 103 103 102 102 104 105 104 105 105 101 94 86 79 75 73 74 73 69 64 60 56 52 48 50 59 67 73 77 75 79 88 90 87 82 73 67 62 56 54 52 49 48 47 45 44 43
4 4 4 4 5 5 5 6 7 9 13 17 21 25 28 32 34 33 32 32 33 38 47 59 73 87 98 104 103 101 100 100 100 102 103 101 102 102 101 102 103 103 102 101 102 102 102 103 103 104 106 106 106 104 101 99 96 91 86 79 74 69 64 59 54 57 66 69 73 79 79 81 93 97 95 90 79 70 65 61 58 56 54 52 49 48 45 43
4 4 5 5 6 6 7 9 11 16 21 25 29 35 38 39 39 39 39 43 48 55 65 78 91 100 103 102 101 100 100 101 101 103 104 103 101 102 103 103 103 103 102 101 102 103 102 101 101 102 104 106 107 106 104 101 98 99 96 88 81 77 71 66 60 63 72 74 76 81 80 82 95 104 105 99 88 77 69 65 62 60 59 56 52 51 48 46
5 5 6 6 7 8 9 11 16 22 29 33 35 39 42 43 43 44 46 52 61 70 79 89 99 104 104 101 101 101 100 101 100 100 104 104 102 101 102 102 100 99 99 99 101 103 103 101 100 101 101 101 101 100 97 94 93 97 99 94 87 79 72 69 69 72 77 80 83 86 84 82 90 103 110 107 97 86 76 69 67 64 62 60 59 57 53 52
6 6 7 7 7 8 10 12 17 23 30 38 42 42 42 42 43 47 51 58 69 79 87 94 99 103 103 100 100 101 101 101 100 98 98 100 102 103 102 100 95 92 93 95 98 101 101 101 100 100 100 99 97 95 91 90 91 94 97 95 91 85 74 68 69 73 78 85 89 90 87 84 83 91 103 109 105 97 86 78 73 69 66 65 63 61 58 57
8 8 8 8 9 10 14 19 25 32 36 39 43 44 44 44 46 52 59 65 75 86 94 99 102 103 102 100 101 100 100 101 100 98 97 97 101 104 102 100 98 96 95 96 98 100 101 102 100 100 101 102 101 101 99 96 96 96 96 92 86 83 78 69 64 65 70 81 92 93 90 88 85 86 96 106 108 105 98 90 83 77 72 68 65 65 63 61
10 11 11 11 14 19 27 37 43 48 49 46 44 47 52 54 55 60 69 76 83 91 99 104 104 103 101 100 101 100 100 101 100 99 99 99 102 103 101 102 104 104 105 104 102 103 104 103 102 101 101 102 101 102 103 104 104 102 100 95 85 77 73 69 66 64 64 73 87 95 94 94 93 91 96 103 108 110 107 97 89 82 77 72 69 68 68 66
16 18 17 20 25 29 37 48 52 56 62 62 56 53 58 63 65 69 78 88 94 97 101 106 104 101 101 101 101 101 100 100 102 104 104 102 104 105 102 103 105 105 106 108 107 107 107 105 105 105 105 106 106 105 104 106 107 105 103 101 94 82 72 68 68 68 66 67 79 96 101 100 99 98 98 103 107 110 111 105 96 89 83 78 74 71 71 70
Wind_Speed
47 46 45 45 45 46 46 47 47 47 47 46 46 46 46 45 45 44 44 45 46 47 49 50 53 55 58 59 61 63 64 63 62 60 63 66 61 55 52 51 51 51 51 51 52 54 55 57 59 61 62 62 63 64 65 65 65 65 66 66 66 68 70 72 72 71 69 65 64 61 59 58 57 56 55 53 51 50 48 46 44 42 42 41 41 41 40 39
49 49 48 47 47 47 48 48 49 49 49 48 48 47 47 47 46 45 45 45 46 47 48 49 51 53 56 57 59 61 63 63 62 63 66 65 60 57 56 55 54 54 53 51 50 50 51 53 55 58 60 61 61 61 61 61 62 62 63 63 65 69 71 72 71 70 67 64 63 61 60 59 58 57 55 53 51 51 49 48 45 43 43 42 42 42 40 40
53 52 52 51 50 50 49 50 50 50 50 50 50 49 48 48 48 47 46 46 46 47 47 49 50 51 54 56 57 59 61 62 63 65 67 64 61 60 59 58 58 57 55 53 51 49 49 50 52 55 57 59 60 59 59 58 58 59 60 60 64 69 71 71 71 69 66 64 62 61 60 59 57 56 55 53 52 51 49 48 46 45 43 42 42 41 40 40
53 54 54 54 55 54 53 52 51 51 52 52 52 51 50 50 49 49 48 48 47 47 48 49 49 51 52 54 56 57 58 60 62 65 66 65 63 61 61 61 60 59 57 54 53 51 49 49 50 52 54 56 58 58 57 57 56 56 57 59 64 68 69 70 69 68 65 63 62 60 60 59 57 56 55 53 52 51 50 49 47 45 43 42 42 41 41 41
50 51 52 53 55 56 57 56 55 54 53 54 54 53 53 52 51 50 50 50 49 49 49 49 50 50 51 53 54 56 57 57 60 64 66 66 65 63 63 63 62 61 58 56 54 53 52 50 50 50 51 53 55 56 56 56 55 54 56 58 62 65 66 67 67 66 64 63 62 61 60 59 57 56 55 54 53 52 51 49 47 45 43 43 43 42 42 42
49 49 49 50 52 54 56 58 59 58 56 56 55 55 55 55 54 52 51 52 51 51 50 50 50 50 51 52 53 55 56 56 58 62 64 65 65 64 64 63 63 62 59 58 56 55 54 53 52 50 50 50 51 53 55 55 54 54 55 58 59 61 63 63 64 64 63 62 61 60 60 59 57 56 55 54 53 52 51 49 47 46 45 45 44 44 43 43
52 52 51 52 52 53 55 57 60 61 61 59 58 57 57 57 56 55 53 53 53 53 52 51 51 51 51 51 51 53 54 56 58 61 62 64 65 64 64 64 64 63 61 60 59 58 57 55 54 52 50 48 48 50 52 53 53 54 56 57 58 58 59 59 61 61 61 61 61 60 60 59 58 57 56 55 53 52 50 49 48 47 47 47 46 46 45 44
55 56 56 55 56 56 56 57 59 62 64 64 62 61 59 59 59 58 56 55 54 54 54 53 52 52 52 51 51 51 53 59 60 60 61 62 63 63 63 63 64 63 62 61 61 60 58 57 55 53 51 49 47 47 47 50 52 54 56 57 56 55 55 55 56 57 58 59 59 60 59 58 57 57 56 55 53 52 50 48 48 48 49 49 49 48 46 45
57 58 59 59 60 60 59 59 60 61 63 66 66 65 63 62 61 60 59 58 57 56 55 55 53 53 53 52 51 49 54 61 60 59 60 61 62 62 61 62 63 63 62 62 61 60 59 58 58 55 53 50 48 45 44 46 50 54 56 56 54 53 52 51 52 53 55 56 57 58 59 58 57 57 56 55 53 52 50 48 48 49 50 51 51 49 47 45
60 61 62 62 63 63 63 63 62 63 64 66 68 69 68 66 64 63 61 61 59 58 57 56 55 54 53 53 51 51 56 61 59 59 61 61 61 61 60 60 62 63 62 62 61 61 60 60 59 57 54 51 49 46 44 45 49 52 54 54 53 52 50 49 50 50 52 53 54 56 57 57 57 57 56 55 53 51 50 49 50 51 52 52 51 49 48 47
64 64 64 65 66 66 66 66 66 66 65 66 68 70 71 70 68 66 64 63 62 61 59 57 57 55 54 52 51 55 60 60 58 59 60 62 62 61 60 59 61 62 62 61 62 62 62 60 59 57 54 52 50 48 46 46 48 50 52 53 54 52 49 49 49 49 50 51 53 54 55 56 56 57 57 55 53 51 50 50 51 52 52 52 51 50 48 47
67 68 68 68 69 69 69 70 70 69 69 68 69 70 72 73 72 70 68 66 65 64 61 59 57 56 56 52 53 60 62 59 58 58 60 63 63 62 60 59 60 61 61 62 62 62 61 60 59 57 55 53 52 50 48 47 47 48 50 52 53 51 50 49 49 48 48 49 50 52 53 55 56 56 56 55 53 51 50 51 52 53 52 52 51 50 48 48
71 71 71 72 72 72 72 73 73 73 72 72 71 71 72 74 76 74 72 70 68 66 64 62 59 58 56 53 58 62 60 59 59 58 60 63 64 64 62 60 60 61 61 61 61 61 60 59 58 57 55 54 53 51 50 49 48 48 49 50 51 50 50 50 49 48 47 47 48 50 52 54 55 56 56 54 52 51 51 52 53 53 52 52 51 50 48 48
74 74 74 75 75 75 75 75 76 76 76 75 75 74 73 74 76 77 75 73 71 69 67 64 61 60 56 57 63 61 59 61 61 59 60 62 64 65 64 62 61 61 61 61 61 60 59 59 58 56 55 54 53 52 52 51 50 48 48 48 48 49 50 50 49 48 47 46 45 47 50 52 53 54 54 53 52 52 52 53 54 54 54 53 51 49 49 47
77 77 78 78 78 78 78 78 79 79 79 79 78 77 76 75 76 78 77 75 74 72 69 66 64 61 57 62 66 61 59 63 63 62 59 60 63 63 64 64 63 63 62 62 61 60 58 58 57 56 55 54 53 52 53 52 51 49 48 47 46 48 49 50 50 49 47 46 44 46 48 50 52 53 53 51 50 52 54 56 56 56 55 53 51 49 48 48
79 80 80 81 81 81 82 82 82 82 82 82 81 80 79 78 77 78 78 77 76 74 72 69 66 62 60 66 68 63 62 63 64 62 57 59 62 63 64 64 65 64 63 63 61 60 58 57 57 56 55 54 52 51 52 52 51 50 49 47 46 48 49 50 50 49 48 46 45 45 46 48 50 52 51 47 44 48 54 58 58 57 55 53 51 49 48 48
81 82 82 83 84 85 85 86 85 85 85 84 83 82 82 80 78 78 78 78 78 76 74 71 68 65 64 68 69 65 64 63 63 61 59 60 61 62 63 63 65 65 65 63 62 60 59 58 57 56 54 52 51 50 50 50 50 50 50 49 48 49 49 49 50 49 48 47 45 46 46 46 47 50 50 48 47 49 52 55 55 56 56 54 52 50 50 49
82 84 85 86 86 87 88 88 87 86 85 84 83 82 82 82 80 78 77 78 78 78 76 73 71 68 67 70 71 68 66 64 63 61 61 62 61 62 63 63 64 65 65 64 62 61 60 58 57 55 54 52 50 49 48 49 51 52 52 52 51 51 50 50 50 49 49 48 46 46 46 45 46 48 50 52 56 56 51 48 50 54 55 55 53 51 51 50
83 85 87 87 88 88 88 88 87 85 83 83 81 81 81 81 80 78 77 77 78 78 77 76 74 71 70 71 72 70 68 65 63 61 62 63 63 62 62 63 63 63 64 64 63 62 61 59 57 54 52 50 49 49 50 52 54 55 55 55 53 52 51 49 49 48 49 48 47 47 47 46 46 47 49 52 57 59 54 48 47 50 50 50 51 52 51 50
83 85 86 87 87 87 86 85 84 82 81 79 79 79 79 79 78 77 76 76 78 79 79 77 76 74 72 73 72 72 69 65 63 61 62 64 64 63 62 62 62 62 62 63 64 64 62 60 56 54 52 52 52 53 54 54 55 55 56 55 54 52 51 49 48 48 49 48 48 49 48 48 47 47 49 51 54 58 60 56 50 47 45 44 46 47 47 47
81 82 82 83 83 82 81 80 80 79 77 76 75 75 75 76 77 76 76 78 79 80 80 79 78 76 75 75 74 73 70 66 64 62 62 64 65 63 62 61 61 60 60 62 64 64 63 60 57 57 57 57 56 55 55 55 54 54 54 54 54 53 52 49 48 47 48 48 49 50 50 49 48 47 48 49 52 55 59 60 58 53 47 43 39 35 35 36
76 77 77 78 78 77 77 76 76 75 74 73 72 73 73 74 74 74 76 79 80 80 80 80 78 77 77 77 77 74 70 68 67 64 63 64 65 64 62 60 59 59 60 60 61 63 62 60 60 61 61 60 58 56 55 54 54 53 53 53 54 55 53 51 49 48 48 48 49 50 50 49 48 48 48 48 50 51 52 56 59 57 51 46 38 29 29 32
72 72 73 73 74 74 73 72 71 72 72 71 70 70 71 72 72 72 76 78 80 81 81 80 79 79 80 80 79 75 70 69 68 65 64 64 65 65 63 60 59 60 59 58 58 60 60 61 63 64 64 62 59 57 56 54 53 52 52 52 54 55 54 52 50 49 48 48 49 49 49 49 48 48 48 47 47 47 48 50 53 54 52 50 44 36 34 34
68 69 69 69 70 70 68 66 65 66 67 67 67 68 69 70 69 71 73 77 80 81 80 81 80 81 82 82 79 75 71 71 68 66 65 64 65 65 64 61 60 59 58 57 57 58 59 63 66 67 66 64 62 60 57 55 53 52 52 52 53 55 54 53 52 51 49 48 48 48 48 48 48 48 48 46 45 44 45 46 47 49 50 52 50 46 45 41
65 65 64 63 63 63 60 57 57 57 60 61 61 63 65 67 68 70 73 77 81 82 81 81 81 83 86 83 79 75 72 70 68 66 65 64 65 66 65 63 61 59 58 58 58 58 59 62 66 67 67 66 64 62 59 57 55 54 53 53 54 55 54 53 53 52 51 49 48 47 47 46 47 47 47 45 44 43 43 43 45 47 47 49 52 52 51 48
60 59 58 56 56 54 52 49 48 49 52 53 53 56 59 63 66 68 72 77 82 84 82 82 83 86 87 82 79 77 74 71 69 68 66 65 65 66 66 65 61 59 59 59 59 58 59 61 63 65 67 67 66 64 62 59 57 55 54 55 56 54 53 52 53 53 53 51 49 47 45 45 45 45 45 43 42 41 42 43 44 46 46 48 52 52 52 53
54 53 52 51 49 48 46 45 44 45 47 48 48 51 54 59 61 63 69 76 81 85 84 84 86 87 87 84 83 79 74 73 72 69 68 67 66 66 66 64 62 60 59 59 58 56 57 60 62 63 65 67 66 65 63 62 59 57 57 58 57 55 53 52 53 53 53 52 50 47 44 43 43 43 43 42 41 41 42 43 45 45 46 48 50 50 53 57
50 49 47 46 44 43 43 41 41 42 43 44 45 47 49 52 54 58 67 73 79 85 85 86 87 88 87 86 84 80 77 76 73 69 70 69 67 67 66 64 62 61 60 58 56 55 56 58 59 61 63 65 66 66 66 65 62 61 62 61 59 57 54 53 52 52 53 52 50 47 45 43 42 42 42 41 41 41 43 45 46 46 46 47 49 51 54 57
46 45 43 40 39 38 39 38 37 38 40 42 42 44 45 46 48 55 64 70 77 84 84 85 87 88 88 86 83 81 80 78 74 72 72 70 68 67 66 65 65 63 61 59 58 57 57 58 60 61 61 63 66 69 69 67 66 66 66 63 61 58 56 53 51 50 50 49 48 48 47 44 42 41 41 41 41 43 47 48 48 47 46 45 48 52 54 57
42 40 38 37 35 34 35 34 34 34 37 39 40 41 42 43 47 53 60 67 75 80 80 82 87 89 88 85 83 83 81 77 73 73 73 71 69 68 68 68 67 65 62 60 59 59 59 60 60 60 60 63 66 69 70 70 69 69 68 64 61 59 56 53 51 49 47 46 47 49 48 46 43 41 40 41 44 48 50 50 49 47 46 46 48 51 54 58
38 37 36 34 33 32 32 32 32 33 34 36 38 39 39 42 46 50 57 65 72 75 76 80 86 88 87 85 84 83 81 77 74 73 72 70 69 69 69 68 67 65 62 60 58 58 59 58 58 59 59 61 64 66 69 70 70 70 68 64 62 59 56 53 50 47 45 43 46 49 48 47 44 42 41 42 46 50 50 50 50 49 49 50 50 50 53 58
36 34 33 31 29 28 29 29 30 31 32 33 35 36 38 42 46 50 55 61 66 71 74 78 83 86 86 85 85 83 80 77 74 73 72 69 68 68 67 66 64 62 59 57 56 57 57 56 56 57 59 60 61 62 65 67 69 69 68 64 61 58 54 51 48 45 43 43 46 47 46 46 44 43 43 44 46 49 50 51 52 51 49 50 50 49 51 55
33 31 28 26 24 24 25 26 27 28 29 31 34 36 40 45 50 52 55 58 63 69 72 76 81 84 84 84 83 82 79 77 75 74 72 70 69 68 67 66 64 61 58 55 55 55 55 54 54 55 57 58 58 58 60 62 64 66 66 65 62 58 53 50 47 44 42 43 45 46 45 44 45 44 44 45 46 48 50 51 51 50 49 50 50 48 48 50
28 25 22 20 19 19 21 23 24 26 29 31 35 39 44 49 51 53 54 57 60 65 70 74 78 80 80 81 82 80 77 75 75 74 73 71 69 68 67 65 64 61 60 58 56 55 54 52 51 52 54 55 55 56 57 60 62 64 66 66 64 59 55 52 49 46 44 44 46 45 43 43 45 46 47 46 47 48 49 49 50 50 50 50 48 47 45 46
21 19 17 15 14 14 17 19 22 25 29 32 36 41 45 48 50 52 55 55 56 61 67 71 74 76 77 78 79 78 76 74 73 73 72 70 67 66 65 64 62 60 59 58 56 56 54 52 51 52 53 53 53 54 57 60 62 64 65 66 65 62 58 55 52 50 48 47 47 45 42 43 46 48 49 49 48 48 49 49 50 50 49 49 47 44 41 40
19 16 13 10 8 10 13 17 20 24 29 34 39 43 45 47 49 52 53 53 55 60 66 69 71 73 74 75 76 75 74 73 72 71 70 68 68 66 64 63 61 59 57 56 54 54 54 53 54 54 53 53 52 53 54 56 58 60 61 61 62 62 60 57 54 52 50 49 47 45 42 43 47 50 51 51 49 49 48 48 49 49 48 47 44 38 34 34
18 14 10 6 5 7 11 15 20 25 30 35 39 42 45 48 50 51 50 51 55 60 64 67 69 69 70 72 73 71 70 70 71 70 68 67 67 66 65 63 61 59 58 56 55 54 54 54 54 55 55 54 53 53 54 55 56 56 57 57 59 61 61 59 57 54 51 49 48 45 42 43 47 50 52 51 49 48 48 47 48 47 45 44 41 38 39 41
17 12 7 4 3 6 10 15 20 25 30 34 38 42 45 48 50 50 50 51 55 59 63 65 66 66 67 69 69 69 68 68 68 67 67 66 65 64 63 62 61 60 59 58 57 56 55 55 55 56 56 56 55 54 53 52 53 54 56 57 58 59 59 58 57 55 52 51 49 47 44 44 47 50 51 50 48 48 47 47 47 45 44 45 45 47 50 52
15 10 5 1 3 6 10 14 18 23 28 32 36 40 43 45 48 49 50 52 55 59 61 63 63 64 65 65 66 67 67 67 65 64 64 64 63 63 62 61 60 59 59 58 58 57 57 56 55 56 57 57 55 53 51 50 50 51 53 55 56 57 57 58 58 57 56 54 52 50 46 45 47 49 50 49 48 48 47 46 46 45 46 49 50 50 53 53
12 7 3 2 4 6 10 14 17 21 25 29 33 36 39 42 45 47 49 52 55 57 59 60 61 61 62 62 63 64 66 65 64 63 62 62 62 61 60 59 59 59 59 59 57 57 57 56 55 55 56 54 52 49 48 49 49 49 50 50 52 53 54 57 59 59 58 57 55 52 48 47 48 49 49 49 48 47 46 45 45 46 48 49 49 50 51 52
8 3 3 4 6 7 9 13 17 20 23 27 31 35 38 40 43 46 49 52 54 56 57 57 58 59 60 61 61 62 63 63 62 61 61 60 60 59 58 58 58 58 58 57 56 56 55 54 54 54 53 50 49 49 51 51 50 50 51 51 52 51 52 54 56 57 57 57 56 53 50 49 49 49 49 48 47 46 45 44 45 46 48 48 48 49 49 50
6 2 4 5 7 10 11 13 17 21 24 28 31 35 38 40 43 47 50 52 53 54 55 55 56 56 58 59 60 60 61 61 61 60 60 59 58 58 58 58 58 58 57 55 55 55 55 54 54 53 53 52 52 52 52 52 53 53 54 55 55 53 52 52 53 55 56 56 56 54 52 50 49 49 49 48 47 46 45 45 46 47 47 46 46 46 46 47
5 2 5 7 8 11 14 16 19 23 26 29 32 36 39 42 45 47 49 50 51 52 52 53 53 54 55 57 58 59 59 59 59 59 59 59 59 58 58 58 58 57 56 54 54 55 54 54 53 54 55 55 54 53 52 52 52 52 52 53 53 52 52 53 55 56 57 56 56 55 53 51 50 49 49 48 47 46 45 46 46 46 46 45 45 45 45 45
5 5 7 8 9 12 15 18 21 24 28 31 35 38 41 44 45 47 48 48 49 49 50 51 52 52 53 54 55 56 57 57 58 58 58 58 58 57 57 57 56 55 54 54 54 53 53 53 53 54 55 54 53 51 50 48 47 46 48 49 51 52 53 54 55 56 56 56 56 55 53 51 50 50 49 49 47 46 45 46 46 46 45 45 45 45 45 44
7 7 9 10 10 12 16 19 23 27 31 34 38 41 43 44 45 46 47 47 48 48 49 50 50 51 52 53 54 54 54 55 56 57 57 57 57 56 56 55 55 54 55 55 55 54 53 53 53 53 53 52 50 47 46 44 43 45 47 49 51 52 53 52 52 53 53 54 55 54 53 51 50 49 49 49 48 46 45 45 45 45 45 45 45 45 44 43
10 10 12 12 12 14 17 22 27 32 35 38 41 42 43 44 45 45 46 47 47 48 49 49 50 51 51 52 53 53 53 54 55 56 56 56 56 56 56 55 54 54 55 55 54 54 54 53 53 53 52 51 50 48 47 46 46 46 47 48 50 51 52 53 52 50 51 53 54 54 54 52 50 50 50 49 48 47 45 45 44 44 44 44 44 44 44 43
13 13 14 14 16 19 23 28 32 36 39 41 42 43 43 43 44 45 45 46 47 47 48 49 49 50 50 51 52 53 54 55 55 55 56 56 56 56 56 55 55 55 55 54 53 53 53 52 52 52 52 51 50 49 49 48 47 46 46 48 50 52 53 53 51 49 50 52 54 55 55 54 52 51 50 50 49 48 46 45 45 44 44 43 43 43 42 42
16 15 16 17 19 24 28 33 37 40 40 40 40 41 42 42 43 44 44 45 46 46 47 48 49 50 51 51 52 53 54 55 56 56 55 55 54 54 54 54 54 55 54 53 52 52 52 52 51 50 50 49 49 49 48 47 46 47 47 48 49 51 52 53 51 51 51 52 53 55 57 56 54 53 52 51 50 49 47 46 45 44 43 42 41 41 41 40
19 17 16 18 21 25 29 33 35 38 39 39 39 39 39 40 40 41 43 44 45 46 46 47 47 49 50 51 51 52 53 53 53 53 52 52 52 52 52 52 52 52 52 51 51 51 51 51 50 49 49 49 48 48 47 47 46 47 48 48 49 50 51 54 55 54 52 52 53 55 56 56 56 54 53 52 51 49 48 47 46 45 44 43 42 41 41 41
23 19 18 19 22 26 29 31 33 34 35 36 37 37 37 38 39 40 41 42 43 45 45 46 47 48 49 49 49 50 50 50 50 50 49 49 49 49 49 50 50 50 51 50 50 50 50 50 49 49 49 48 48 47 47 47 47 48 49 50 51 51 51 53 55 56 54 52 53 54 54 55 56 55 54 54 52 51 50 49 48 47 46 45 44 43 42 42
26 23 21 23 25 28 31 33 34 34 33 33 34 35 36 36 37 38 39 40 41 43 44 46 47 47 48 48 48 48 47 47 46 46 46 47 47 48 48 49 50 50 50 50 49 49 49 49 49 49 48 48 48 47 47 47 48 49 50 51 51 51 51 52 53 55 55 54 53 54 53 54 55 55 55 55 54 53 52 52 51 49 48 47 46 45 44 44
29 27 26 27 29 31 32 34 33 33 33 32 32 34 35 34 35 36 38 39 40 41 42 43 44 45 46 47 47 46 46 45 44 44 44 46 47 48 49 49 50 50 50 49 49 49 50 50 49 49 48 49 49 48 47 48 49 50 50 51 51 51 51 52 53 55 56 55 54 54 54 54 55 55 55 56 55 55 54 53 52 50 49 48 47 46 46 45
Wind_Direction
283 281 278 275 273 271 270 269 268 268 267 266 265 264 264 263 262 260 258 256 255 253 250 248 246 244 242 241 240 239 238 236 236 238 239 240 240 241 241 240 239 239 239 240 240 240 240 240 239 239 239 239 239 239 239 239 239 239 239 239 238 238 238 239 240 241 242 242 243 243 244 244 245 246 247 248 249 250 251 251 251 252 253 255 256 257 259 260
282 281 279 277 275 272 270 268 266 265 265 265 264 263 262 262 262 261 259 257 255 253 251 249 247 245 243 242 241 239 238 237 235 237 238 239 240 240 240 239 238 238 237 238 238 239 239 239 239 238 238 237 237 238 238 238 238 238 238 238 237 237 238 238 239 240 241 241 241 242 242 243 244 245 246 247 248 249 250 251 251 251 252 253 254 257 259 260
279 279 278 277 275 273 271 269 267 265 263 263 262 262 261 261 260 260 260 258 256 253 252 250 248 246 244 242 241 240 239 237 236 236 238 238 238 239 239 238 238 238 237 237 237 238 238 238 238 238 237 237 237 237 237 237 237 237 236 236 236 237 237 238 238 239 239 240 240 240 241 242 243 244 245 246 246 247 248 249 250 251 252 253 255 257 258 258
279 278 277 275 274 273 271 269 267 265 263 262 260 260 260 259 258 258 258 258 257 254 252 250 248 246 245 243 242 240 239 238 237 237 237 236 235 237 238 239 238 239 238 237 237 237 237 238 238 238 237 237 236 236 236 236 235 235 235 235 236 237 238 238 238 238 238 238 239 239 240 241 242 243 244 244 245 245 246 248 249 250 252 253 254 254 255 256
279 278 277 276 274 272 270 268 267 265 263 261 260 258 258 257 257 256 256 256 256 255 252 250 248 246 245 244 243 241 240 239 238 239 238 236 234 235 237 238 238 239 238 238 238 237 237 237 237 237 237 236 236 235 234 234 234 234 234 235 237 238 238 238 238 238 237 237 237 238 239 240 241 242 243 243 243 244 245 247 248 249 250 250 251 252 253 254
280 279 278 277 276 274 271 268 266 264 262 261 259 258 256 255 255 254 254 254 254 254 253 250 248 246 245 244 243 242 240 239 239 239 238 236 234 234 235 236 237 238 238 238 238 237 237 236 237 237 237 237 236 235 234 234 234 233 234 235 236 237 238 238 238 237 237 236 236 237 238 238 240 240 241 242 242 243 244 245 246 247 248 248 249 249 250 251
283 281 280 279 278 277 274 270 267 263 261 259 258 257 255 254 254 253 252 252 252 252 252 251 248 246 244 243 242 242 241 239 238 239 238 237 235 234 234 235 236 237 237 237 237 237 236 236 236 236 237 237 237 236 235 234 233 233 234 234 235 236 237 238 238 238 236 236 235 236 236 237 238 239 240 241 241 242 243 244 245 246 246 246 246 247 248 249
283 282 281 281 280 279 276 273 269 265 261 258 257 255 254 253 252 251 251 250 250 250 250 250 249 247 244 242 242 241 241 239 237 238 238 237 236 235 235 235 235 235 235 236 236 236 237 237 237 236 236 236 237 236 236 234 233 233 233 234 234 235 236 237 238 237 237 235 235 235 235 236 237 238 239 240 241 241 242 242 243 244 245 245 245 246 248 249
282 281 280 280 280 280 278 275 271 267 263 259 256 254 253 252 250 250 249 249 248 248 248 248 248 247 244 241 240 240 241 240 237 237 238 237 236 235 235 235 235 235 234 235 235 236 236 236 236 235 235 236 236 237 236 235 234 233 234 234 235 235 235 236 237 236 236 235 234 235 235 235 236 237 238 240 241 241 241 241 242 242 243 244 245 247 248 249
282 281 280 279 279 279 278 276 273 268 264 260 256 253 252 251 249 248 247 247 247 246 246 246 246 246 245 241 239 239 241 240 237 236 236 236 236 235 234 235 235 234 233 234 234 234 234 234 235 235 235 235 235 236 235 235 234 234 234 234 234 234 233 234 234 234 234 233 233 234 234 235 235 236 238 239 239 240 240 240 240 241 242 244 245 247 247 248
283 282 280 279 278 277 276 275 273 269 265 261 257 254 251 250 249 247 246 245 245 245 244 244 244 244 244 242 238 238 239 239 237 236 235 236 236 235 233 233 234 234 233 232 232 233 233 233 234 235 234 233 233 233 234 234 234 234 234 234 234 233 232 233 233 233 233 232 231 232 233 234 234 236 237 238 238 239 239 239 240 240 242 243 245 246 247 249
283 282 281 280 278 276 274 272 270 269 265 261 257 254 251 249 247 246 245 243 243 243 243 242 242 241 242 242 240 238 237 238 237 236 235 235 235 234 233 232 233 234 233 232 232 232 232 232 233 233 233 232 232 232 233 234 235 235 234 234 234 232 231 231 231 231 232 231 230 230 231 232 233 235 236 236 237 237 238 238 239 240 241 242 244 245 247 249
283 282 281 279 278 275 273 270 268 267 265 261 257 254 251 248 246 245 244 243 241 241 241 240 240 240 239 239 240 238 236 236 236 235 234 234 234 233 232 231 232 233 233 233 232 232 232 231 231 232 232 231 231 230 231 232 234 234 234 234 234 233 231 231 230 230 230 230 230 230 229 230 231 233 234 235 236 236 236 237 239 240 241 242 244 245 247 249
283 282 280 278 276 274 271 269 266 264 263 260 257 253 251 248 246 243 242 241 240 239 239 238 238 238 236 238 240 238 236 235 234 233 233 233 233 232 231 230 230 231 232 233 233 232 232 231 231 230 230 230 230 229 229 231 232 233 234 234 234 233 232 231 230 230 229 229 229 229 229 229 229 231 232 233 234 235 236 238 240 241 242 243 244 246 247 249
283 281 280 277 275 272 270 267 264 262 260 258 256 252 250 248 245 243 240 240 239 238 237 236 236 236 235 237 239 237 236 235 233 232 232 233 234 233 232 231 230 231 231 232 232 232 232 232 231 230 229 229 229 229 229 230 231 232 234 234 233 233 232 232 230 229 228 227 227 228 229 228 228 229 230 232 236 239 241 242 242 242 243 244 245 246 248 249
282 280 278 276 274 271 268 265 263 260 258 256 254 251 249 247 244 242 239 238 238 237 236 234 234 233 233 236 237 235 235 235 234 231 231 233 234 233 232 231 230 230 230 231 232 232 231 231 231 230 229 229 229 229 229 230 230 232 233 233 233 232 231 231 230 229 228 226 225 227 228 227 227 228 228 228 236 244 246 244 243 242 243 244 245 246 247 248
281 279 276 274 272 269 267 264 262 259 257 255 252 250 248 246 244 241 239 236 236 235 234 233 232 231 231 234 236 234 234 235 234 231 229 232 233 233 232 231 231 230 230 230 231 231 231 231 231 230 229 228 227 228 229 230 231 231 232 232 232 231 230 230 230 228 227 226 225 226 227 226 226 227 225 220 220 228 236 239 240 241 243 244 244 245 246 247
279 277 274 272 270 268 266 264 262 259 257 255 252 249 246 245 243 240 238 235 234 233 233 232 231 229 229 232 234 233 233 234 234 230 228 230 231 232 231 231 230 230 229 229 230 230 230 230 230 230 229 228 227 227 228 228 228 227 229 229 229 230 228 228 228 227 227 226 225 226 226 225 225 226 225 220 217 219 225 234 238 240 241 241 241 243 244 246
277 274 272 271 269 267 265 264 263 260 258 255 253 249 246 244 242 240 237 235 233 232 231 230 230 228 228 230 232 233 232 232 233 231 229 229 230 231 231 230 230 229 229 228 229 229 229 229 229 230 230 228 227 225 224 225 225 225 225 227 228 230 229 228 228 227 227 226 225 226 225 225 224 225 225 223 221 220 222 228 233 236 239 239 240 241 244 246
276 274 272 270 269 267 266 264 263 261 259 256 253 250 246 244 241 238 236 234 232 231 230 228 228 227 227 228 230 232 231 231 232 232 230 229 229 230 231 230 230 229 229 228 228 228 228 228 228 228 227 226 224 222 222 223 224 225 225 226 228 230 231 230 229 228 227 226 225 225 225 224 223 224 225 225 224 223 222 225 228 232 236 239 240 242 247 251
276 274 272 271 269 268 267 265 263 262 259 256 253 250 247 244 241 237 234 232 230 229 228 227 226 226 226 227 228 229 229 230 230 231 230 229 228 229 230 230 230 230 229 228 228 227 227 226 226 226 226 225 224 222 222 223 224 225 226 226 227 229 230 230 230 229 228 227 226 225 225 224 223 223 225 226 227 226 225 227 229 231 234 238 241 248 258 262
277 275 273 272 271 269 267 265 264 262 260 257 253 250 247 244 241 237 233 231 229 228 227 226 225 225 225 226 227 227 227 228 228 229 229 228 227 227 228 229 229 229 229 228 228 227 227 226 225 225 225 225 225 225 224 224 224 225 226 226 226 227 228 229 229 229 228 227 227 226 226 225 224 223 224 226 228 229 229 229 232 233 233 236 237 240 256 265
278 277 275 273 272 270 268 266 264 262 260 257 253 250 246 243 240 236 233 230 228 227 226 225 224 224 224 225 226 225 225 226 227 228 228 227 226 226 226 228 228 228 228 228 228 227 226 224 224 225 225 225 224 224 225 224 224 225 226 226 226 227 226 227 228 229 228 227 227 227 227 226 225 224 225 226 228 230 232 232 234 234 232 233 231 223 228 246
280 278 276 274 273 271 270 267 264 261 259 256 252 249 246 243 239 235 232 230 229 227 225 223 222 223 224 225 225 224 224 225 227 227 228 227 226 225 225 225 227 227 226 226 226 225 224 223 223 223 223 223 223 223 223 224 224 224 224 225 226 226 225 225 226 227 228 228 227 227 227 227 226 226 225 225 227 229 232 233 234 234 232 231 230 222 218 225
282 280 278 276 274 273 271 268 263 260 257 254 250 246 243 240 236 232 229 227 227 227 224 223 221 221 223 224 224 224 223 225 226 227 228 227 226 224 224 224 225 225 225 225 225 224 223 224 224 223 223 222 222 221 221 222 222 222 223 224 225 226 224 224 224 226 227 227 227 227 227 227 227 227 227 226 226 229 231 232 233 233 232 230 229 225 220 219
285 282 281 279 276 274 272 267 261 256 253 250 246 242 239 236 232 229 226 224 224 225 224 222 220 221 223 222 222 222 222 223 224 225 226 226 225 224 223 223 223 224 224 224 224 224 223 224 224 224 224 223 223 222 221 221 222 222 222 223 224 224 224 223 223 224 226 227 227 227 227 227 227 228 228 226 226 228 230 232 233 233 231 230 229 226 222 222
287 285 283 280 278 275 271 266 260 254 250 246 241 237 234 232 229 224 222 221 221 222 222 220 220 221 221 220 220 221 220 221 223 223 224 224 223 222 222 222 222 223 224 224 224 224 225 225 225 224 224 224 223 223 222 222 221 221 223 223 223 223 222 222 223 223 224 225 226 227 228 228 228 228 228 227 226 228 230 232 233 233 232 229 228 227 224 225
289 287 285 282 278 274 270 264 258 251 247 243 238 234 230 228 224 220 219 218 218 220 220 219 219 220 220 219 220 219 219 220 221 221 223 223 221 220 220 221 221 222 223 223 223 223 225 226 225 225 224 223 222 222 222 221 220 220 222 223 222 221 221 221 222 224 224 225 225 227 228 228 228 227 228 227 226 228 230 231 232 231 231 229 227 227 225 226
292 290 287 284 279 273 268 263 256 248 243 239 235 230 227 223 219 216 215 215 216 218 217 216 218 219 219 218 219 219 220 220 220 220 221 221 220 219 218 218 219 221 221 221 220 220 221 223 223 223 222 221 221 220 220 220 219 220 222 222 221 221 220 220 221 223 225 225 225 227 227 227 227 227 226 225 225 228 229 230 230 230 230 229 228 228 226 226
295 293 290 286 281 274 267 261 253 245 238 234 230 226 222 217 214 212 212 212 213 215 215 214 216 218 218 217 218 218 220 220 220 221 221 220 218 217 216 217 218 218 220 220 220 220 220 221 222 222 222 222 221 221 220 219 219 220 222 222 222 221 221 220 220 222 224 224 225 226 227 227 227 227 226 224 224 227 228 229 230 229 229 229 229 228 227 228
299 296 293 288 281 273 265 258 250 242 233 228 224 221 215 211 210 209 209 210 211 212 212 212 214 216 216 216 217 218 219 219 219 221 221 220 219 217 216 217 218 218 219 219 220 222 223 224 223 223 223 223 224 223 222 221 221 222 223 223 224 223 222 221 221 222 222 223 226 227 227 227 227 227 226 224 224 226 228 229 230 230 228 229 229 227 228 230
302 297 292 285 276 267 259 252 245 238 230 222 218 214 209 206 207 207 207 209 209 209 209 209 212 214 215 215 216 217 217 217 218 219 219 219 219 218 217 217 218 219 221 222 222 222 224 225 225 225 224 224 224 224 224 224 224 224 225 225 226 226 225 224 223 222 222 223 227 227 226 226 226 227 228 227 226 227 228 229 230 230 230 231 231 229 229 231
301 296 289 280 269 258 250 244 238 232 224 216 210 206 203 202 203 204 205 206 206 207 207 207 209 212 213 214 215 216 216 216 216 217 217 216 216 215 215 216 216 217 219 221 223 224 225 225 225 226 226 226 225 224 224 224 225 226 226 226 227 227 226 225 223 222 221 223 227 227 225 225 225 227 229 229 229 229 229 230 230 231 231 233 233 232 232 234
300 296 288 277 264 250 240 233 227 221 215 209 204 201 200 201 201 202 203 204 204 204 204 204 207 209 210 212 214 215 216 216 215 215 214 214 214 213 214 215 215 215 216 217 218 220 223 225 226 227 227 227 226 225 223 222 223 223 224 224 225 225 224 223 220 219 219 220 224 225 223 222 223 225 228 228 229 230 230 231 231 231 232 233 235 234 234 236
307 304 295 282 267 250 235 224 217 212 207 202 199 198 199 200 200 201 202 203 202 202 202 202 204 206 207 209 211 212 212 213 215 215 213 212 211 212 213 214 215 215 218 219 219 218 219 219 221 223 225 226 225 225 224 223 223 223 223 223 223 223 222 221 219 217 217 218 222 223 220 219 220 223 226 227 228 229 230 230 231 231 231 232 234 235 237 242
322 314 303 291 274 253 232 216 208 204 200 196 195 196 197 197 199 201 201 200 199 200 200 200 202 203 204 206 209 210 210 210 211 212 212 211 209 209 211 213 214 215 217 219 221 221 220 219 218 219 221 222 223 224 224 224 224 223 224 224 224 223 222 220 219 218 217 218 221 221 219 218 219 221 225 227 227 229 230 230 231 231 231 231 232 233 237 244
329 319 309 296 268 240 223 209 201 197 195 194 193 193 194 195 197 200 199 198 198 198 197 198 200 201 202 204 205 206 207 208 209 209 209 210 210 209 209 210 211 213 215 216 217 219 220 220 219 218 219 219 220 221 222 222 222 222 222 222 223 223 221 220 220 219 218 219 221 221 219 218 218 221 225 227 228 230 230 231 231 232 231 231 229 224 224 228
329 321 316 294 227 203 202 201 198 195 192 191 190 190 192 193 194 195 195 196 196 195 194 196 197 199 200 202 202 202 203 206 207 207 207 207 209 209 209 209 210 212 214 215 215 215 216 218 218 218 219 219 219 220 220 220 221 221 221 221 221 220 220 220 220 219 219 219 220 220 219 219 219 221 224 226 227 228 229 230 231 231 230 228 226 221 219 221
330 324 320 275 184 185 186 188 193 193 191 188 188 189 190 191 191 191 191 193 193 192 192 193 195 197 198 199 200 199 200 202 204 205 206 207 207 209 209 210 210 212 214 215 215 216 216 216 217 218 219 220 220 221 221 220 220 221 221 223 223 220 218 218 218 218 217 218 219 219 218 219 220 221 222 224 226 227 228 229 229 229 227 226 225 223 222 224
334 335 348 115 146 170 178 178 182 188 189 188 186 185 186 187 187 187 188 189 189 189 190 191 192 194 195 196 198 198 198 199 200 202 204 206 207 209 209 210 211 212 214 216 216 217 217 217 217 218 220 222 222 222 222 221 220 220 220 222 223 221 219 219 218 217 217 217 217 217 217 218 220 221 221 223 225 227 228 229 229 229 229 228 227 226 225 225
335 356 68 111 133 147 165 174 175 179 182 182 179 179 180 182 182 183 184 185 185 187 188 190 191 191 192 194 195 197 197 197 198 199 202 204 207 208 209 210 211 213 216 217 217 218 219 219 219 219 220 221 222 221 220 219 218 218 217 219 219 217 217 218 218 218 218 218 219 218 218 220 221 221 222 222 224 225 226 227 228 229 229 230 230 230 229 229
329 22 95 111 131 140 152 165 168 169 171 173 173 174 175 176 177 179 180 181 182 184 186 188 189 189 190 191 193 195 196 196 197 198 200 203 205 207 208 209 211 213 215 216 217 217 218 219 219 219 218 218 218 219 220 219 218 217 217 217 217 215 214 214 215 215 216 217 218 218 219 221 223 223 222 222 223 223 223 224 225 227 228 229 230 231 232 232
339 51 97 110 126 139 146 155 162 163 164 166 168 168 169 171 173 175 177 179 181 182 184 185 187 188 189 190 191 193 195 196 197 198 200 202 204 205 207 208 210 212 214 215 216 217 218 218 218 218 218 218 218 219 220 220 220 220 220 220 219 217 216 214 213 213 212 213 215 216 218 220 221 222 222 221 222 222 222 223 224 225 226 227 228 229 229 230
12 67 93 107 124 138 144 151 156 157 157 160 162 164 166 168 170 172 174 176 178 180 181 183 184 185 187 189 190 192 194 196 198 199 200 202 204 205 206 208 210 212 213 214 214 216 217 218 219 219 220 221 221 222 223 223 223 223 223 223 221 219 218 217 216 215 212 211 212 214 216 218 218 219 220 219 220 221 222 223 224 225 225 225 226 227 227 228
39 71 87 100 119 134 140 146 149 150 151 155 158 161 163 165 167 170 172 174 176 178 179 181 182 183 185 187 189 191 193 196 199 201 202 203 204 205 206 208 209 211 212 212 212 214 215 216 218 219 221 222 224 226 227 227 225 224 224 223 223 220 219 219 218 217 215 212 212 213 215 217 218 219 220 220 219 219 221 223 224 225 225 225 226 227 228 228
51 74 87 97 113 125 133 141 144 146 149 153 157 159 162 163 165 168 170 172 174 176 177 179 180 182 184 186 188 190 192 195 198 201 203 204 204 205 206 207 208 210 211 212 212 214 215 215 216 218 219 220 221 222 223 223 223 224 224 224 223 222 220 219 218 217 216 214 213 213 215 216 217 218 220 220 220 219 220 222 224 226 227 227 227 228 228 228
59 78 91 103 118 128 135 140 142 145 150 154 156 158 160 162 164 167 169 170 172 174 175 177 179 181 184 186 188 190 193 195 197 200 202 203 204 205 206 207 207 208 209 211 212 214 216 216 216 217 219 220 221 221 221 221 221 222 224 224 224 222 221 220 218 217 217 215 213 214 215 215 215 216 218 220 220 220 220 221 223 225 227 228 229 229 230 230
65 80 97 112 125 134 139 143 145 148 151 154 155 157 159 162 164 166 168 169 171 173 175 177 179 181 183 186 189 192 194 196 197 199 201 203 205 206 207 208 209 209 210 210 212 214 216 217 217 219 220 221 222 223 223 223 222 222 223 224 224 223 221 219 217 217 217 215 214 215 216 215 214 214 216 218 220 220 220 221 222 224 226 228 229 231 231 232
70 80 99 116 128 136 141 144 146 148 150 151 153 156 158 161 163 166 168 169 171 173 175 178 180 182 185 187 190 193 195 198 199 200 201 203 205 207 209 210 210 211 211 212 213 214 216 217 218 219 221 222 224 225 225 225 224 224 224 225 224 224 222 219 217 216 216 215 214 215 217 218 217 216 216 217 219 221 221 222 223 224 225 227 228 230 230 231
76 83 100 115 126 133 137 139 141 143 146 149 152 154 158 160 163 165 168 170 172 174 176 178 181 184 186 189 191 194 197 199 200 201 202 203 205 207 209 210 211 211 212 213 214 216 217 218 218 220 221 223 225 226 227 227 226 225 226 226 225 223 222 220 218 216 215 214 214 215 217 219 220 218 218 218 218 220 221 222 223 223 224 225 227 228 230 231
85 91 103 115 124 130 134 136 139 142 144 148 151 153 157 160 162 165 168 170 173 175 177 180 182 185 188 190 192 194 197 200 202 203 203 204 205 206 207 209 210 211 212 213 214 216 218 218 219 221 222 224 225 226 227 228 228 227 227 227 227 226 223 221 219 218 216 215 215 215 216 219 221 220 219 219 219 220 221 222 223 223 224 225 226 228 229 231
96 101 110 120 127 131 135 137 139 141 142 146 150 153 155 159 162 165 168 171 174 176 179 181 184 187 189 191 192 194 197 199 201 203 205 205 205 206 207 208 209 210 211 212 214 216 218 218 219 221 222 224 225 226 227 228 228 228 228 229 229 229 226 222 219 218 217 216 215 215 215 218 221 221 221 221 220 221 222 223 224 225 225 226 227 228 230 231